Hourly Data Report for November 07, 2020

CARBERRY CS
MANITOBA
Current Station Operator: ECCC - MSC

49°54'20.900" N
99°21'26.800" W
383.50 m
5010547
71170
WZE

Download Data

Hourly Data (November 2020)
Hourly Data Report for November 7, 2020
TIME
LST
Temp Definition
°C
Dew Point Definition
°C
Rel Hum Definition
%
Precip. Amount Definition
mm

Wind Dir Definition
10's deg

Wind Spd Definition
km/h
Visibility Definition
km
Stn Press Definition
kPa
Hmdx Definition


Wind Chill Definition


Weather Definition


00:00 -4.3 -5.6 90 0.0 2 18   96.79   -10 LegendNANA
01:00 -4.5 -5.0 97 0.0 2 19   96.76   -11 LegendNANA
02:00 -4.5 -4.6 99 0.0 3 18   96.78   -11 LegendNANA
03:00 -4.5 -4.5 100 0.0 4 23   96.76   -11 LegendNANA
04:00 -4.4 -4.5 100 0.0 4 15   96.74   -10 LegendNANA
05:00 -4.8 -4.8 100 0.0 4 16   96.70   -11 LegendNANA
06:00 -4.9 -4.9 100 0.0 4 19   96.70   -11 LegendNANA
07:00 -4.8 -4.8 100 0.0 4 20   96.67   -11 LegendNANA
08:00 -4.7 -4.8 100 0.0 4 17   96.67   -11 LegendNANA
09:00 -4.7 -4.8 100 0.0 4 19   96.61   -11 LegendNANA
10:00 -4.5 -4.5 100 0.0 4 20   96.54   -11 LegendNANA
11:00 -3.8 -4.2 97 0.0 4 25   96.43   -11 LegendNANA
12:00 -2.5 -4.1 89 0.0 3 23   96.42   -9 LegendNANA
13:00 -1.6 -4.5 81 0.0 4 22   96.31   -8 LegendNANA
14:00 -0.8 -4.6 75 0.0 4 28   96.20   -7 LegendNANA
15:00 -0.5 -4.5 74 0.0 5 25   96.13   -7 LegendNANA
16:00 -1.0 -4.5 77 0.0 5 23   96.11   -7 LegendNANA
17:00 -1.4 -4.5 79 0.0 5 18   96.12   -7 LegendNANA
18:00 -1.6 -4.3 82 0.0 4 20   96.07   -7 LegendNANA
19:00 -1.3 -4.0 82 0.0 4 20   96.03   -7 LegendNANA
20:00 -1.5 -4.1 83 0.0 4 19   95.97   -7 LegendNANA
21:00 -1.7 -4.1 84 0.0 4 15   95.93   -7 LegendNANA
22:00 -1.7 -3.9 85 0.0 4 19   95.86   -7 LegendNANA
23:00 -1.3 -3.5 85 0.0 3 18   95.87   -7 LegendNANA

Notes on Data Quality.

Legend

  • E = Estimated
  • M = Missing
  • NA = Not Available*
  • [empty] = Indicates an unobserved value
Date modified: